Voltar ao catálogo

METEOR 2-12 DEB

AtivoPO
NORAD 59996·DEBRIS·🇷🇺 Russia

Lançado Feb 6, 1985 de Plesetsk Cosmodrome

Loading…

Próximas Passagens (próximas 24 horas)

TLE

AtualizadoSource: Space-Track

Época: Sep 13, 2026, 02:40 UTC

1 59996U 85013G   26256.11153439  .00001836  00000-0  11243-2 0  9994
2 59996  82.5259 196.7653 0010285 222.4298 152.3068 14.05352334629803

Acompanhe METEOR 2-12 DEB em tempo real com AllMySat

Download on the App Store